This is the latest recevied weather packets stored in our database for station/object KE8WMS. If no packets are shown the sender has not sent any weather packets the latest 10 day(s).
| Time | Temp. | Humidity | Pressure | Rain* | Wind** | Luminosity | Snow |
|---|---|---|---|---|---|---|---|
| 1787912179 | 18.89° C | 91% | 1014.1 hPa | 0 mm | - | 0 W/m² | - |
| 1787911875 | 18.89° C | 91% | 1014.4 hPa | 0 mm | - | 0 W/m² | - |
| 1787911575 | 18.89° C | 91% | 1014.2 hPa | 0 mm | - | 0 W/m² | - |
| 1787911274 | 18.89° C | 91% | 1014.1 hPa | 0 mm | - | 0 W/m² | - |
| 1787910971 | 18.89° C | 90% | 1013.9 hPa | 0 mm | - | 0 W/m² | - |
| 1787910667 | 19.44° C | 90% | 1013.8 hPa | 0 mm | - | 0 W/m² | - |
| 1787910366 | 19.44° C | 90% | 1013.8 hPa | 0 mm | - | 0 W/m² | - |
| 1787910062 | 18.89° C | 91% | 1013.7 hPa | 0 mm | - | 0 W/m² | - |
| 1787909759 | 19.44° C | 91% | 1013.7 hPa | 0 mm | - | 0 W/m² | - |
| 1787909459 | 19.44° C | 91% | 1013.7 hPa | 0 mm | - | 0 W/m² | - |
| 1787909154 | 19.44° C | 91% | 1013.6 hPa | 0 mm | - | 0 W/m² | - |
| 1787908850 | 19.44° C | 90% | 1013.7 hPa | 0 mm | - | 0 W/m² | - |
| 1787908549 | 20° C | 90% | 1013.7 hPa | 0 mm | - | 0 W/m² | - |
| 1787908244 | 20° C | 90% | 1013.4 hPa | 0 mm | - | 0 W/m² | - |
| 1787907943 | 20° C | 90% | 1013.7 hPa | 0 mm | - | 0 W/m² | - |
| 1787907640 | 20° C | 90% | 1013.4 hPa | 0 mm | - | 0 W/m² | - |
| 1787907338 | 20° C | 90% | 1013.3 hPa | 0 mm | - | 0 W/m² | - |
| 1787907034 | 20° C | 91% | 1013.2 hPa | 0 mm | - | 0 W/m² | - |
| 1787906731 | 20° C | 94% | 1013.1 hPa | 0 mm | - | 0 W/m² | - |
| 1787906427 | 20° C | 96% | 1013 hPa | 0 mm | - | 0 W/m² | - |
| 1787906126 | 19.44° C | 98% | 1013.1 hPa | 0 mm | - | 0 W/m² | - |
| 1787905822 | 19.44° C | 99% | 1012.9 hPa | 0 mm | - | 0 W/m² | - |
| 1787905516 | 19.44° C | 99% | 1012.9 hPa | 0 mm | - | 0 W/m² | - |
| 1787905213 | 18.89° C | 99% | 1013 hPa | 0 mm | - | 0 W/m² | - |
| 1787904912 | 18.33° C | 99% | 1012.8 hPa | 0 mm | - | 0 W/m² | - |
* Rain latest hour (hover to see other rain measurements)
** Current wind speed in m/s (hover to see current wind gust speed)